Weather Roundup
Issued by NWS Corpus Christi, TX

Home | Current Version | Previous Version | Text Only | Print | Product List | Glossary On
Versions: 1 2 3 4 5 6 7 8 9 10 11 12 13 14 15 16 17 18 19 20 21 22 23 24 25 26 27 28 29 30 31 32 33 34 35 36 37 38 39 40 41 42 43 44 45 46 47 48 49 50
000
ASUS44 KCRP 180910
HRRCRP

SOUTH TEXAS REGIONAL WEATHER ROUNDUP
NATIONAL WEATHER SERVICE CORPUS CHRISTI TX
400 AM CDT FRI APR 18 2014


TXZ229>244-181000-
...CORPUS CHRISTI AREA OBSERVATIONS...

CITY           SKY/WX    TMP DP  RH WIND       PRES   REMARKS
CORPUS CHRISTI CLOUDY    67  62  84 NE9       30.10F
NAS CORPUS CHR CLOUDY    67  63  87 NE13      30.09F
ROCKPORT       CLOUDY    64  62  93 N8        30.11S
KINGSVILLE NAS CLOUDY    66  65  96 N6        30.10S
ALICE          CLOUDY    64  62  93 NE8       30.11S
FALFURRIAS     CLOUDY    64  62  94 NE6       30.09F
$$

...VICTORIA AREA OBSERVATIONS...

CITY           SKY/WX    TMP DP  RH WIND       PRES   REMARKS
VICTORIA       CLOUDY    61  59  93 N3        30.13S
BEEVILLE       CLOUDY    63  62  98 NE6       30.12F
PLEASANTON     RAIN      63  59  87 NE3       30.15F
SAN ANTONIO    CLOUDY    62  60  93 CALM      30.16S FOG
$$

...LAREDO AREA OBSERVATIONS...

CITY           SKY/WX    TMP DP  RH WIND       PRES   REMARKS
LAREDO         CLOUDY    67  61  81 E8        30.14S
COTULLA        CLOUDY    64  59  83 E6        30.13F
DEL RIO        CLOUDY    66  59  78 SE10      30.13S
MCALLEN        CLOUDY    68  66  93 NE6       30.08S
HEBBRONVILLE   CLOUDY    64  62  94 E7        30.11F FOG
$$

...OTHER TEXAS OBSERVATIONS...

CITY           SKY/WX    TMP DP  RH WIND       PRES   REMARKS
BROWNSVILLE    CLOUDY    69  67  93 NE6       30.05F
HOUSTON        CLOUDY    60  54  80 N5        30.13R
COL. STATION   CLOUDY    60  59  96 NW3       30.15S FOG
AUSTIN         CLOUDY    60  58  92 CALM      30.16S FOG
WACO           LGT RAIN  58  56  93 CALM      30.17S FOG
FORT WORTH     CLOUDY    56  53  90 N6        30.18S FOG
WICHITA FALLS  CLOUDY    54  51  90 NE5       30.21F
LUBBOCK        CLOUDY    44  36  73 E6        30.23S
EL PASO        MOCLDY    61  30  31 CALM      30.09F
$$

...MARINE OBSERVATIONS...

STATION/POSITION TIME  SKY/WX   TEMP    WIND        PRES    VSBY  WAVE   SWELL
                                AIR SEA DIR/SP/G                  HT/PER HT/PER
                 (UTC)          (F)     (DEG/KT/KT) (MB)    (MI)  (FT/S) (FT/S)
PORT ARANSAS     0900            65 66   30/ 12/ 13 1019.1F
BUOY 90 E PORT A NOT AVBL
BUOY 45 SE BAFFI 0900            69 68   60/ 10/ 10 1018.0F         5/ 7   5/ 7
BUOY 200 E PT IS NOT AVBL
BUOY 15 E GALVES 0900            63 65   50/ 14/ 17 1018.6F         4/ 7   3/ 7
$$



USA.gov is the U.S. government's official web portal to all federal, state and local government web resources and services.